Weather History for Farmington, NM

Change the Weather History Date:

Monday, February 18, 2013

  Actual Average Record
Temperature  
Mean Temperature 32 °F -  
Max Temperature 43 °F 47 °F 62 °F (2004)
Min Temperature 21 °F 24 °F 16 °F (1988)
Degree Days  
Heating Degree Days 33    
Moisture  
Dew Point 3 °F    
Average Humidity 28    
Maximum Humidity 57    
Minimum Humidity 4    
Precipitation  
Precipitation 0.00 in - - ()
Sea Level Pressure  
Sea Level Pressure 30.05 in    
Wind  
Wind Speed 12 mph (WNW)    
Max Wind Speed 24 mph    
Max Gust Speed 29 mph    
Visibility 10 miles    
Events      
Averages and records for this station are not official NWS values.
T = Trace of Precipitation, MM = Missing Value Source: NWS Daily Summary

Daily Weather History Graph

Daily Weather History Graph

Search for Another Location

Airport:

Trip Planner

Search our weather history database for the weather conditions in past years. The results will help you decide how hot, cold, wet, or windy it might be!

Date:

Astronomy

Feb. 18, 2013 Rise Set
Actual Time 6:57 AM MST 5:56 PM MST
Civil Twilight 6:30 AM MST 6:23 PM MST
Nautical Twilight 6:00 AM MST 6:53 PM MST
Astronomical Twilight 5:30 AM MST 7:23 PM MST
Moon 11:49 AM MST (2/18) 1:35 AM MST (2/18)
Length of Visible Light 11h 52m
Length of Day
10h 59m
First Quarter, 59% of the Moon is Illuminated
Feb 18
First Quarter
Feb 25
Full
Mar 4
Last Quarter
Mar 11
New
Mar 19
First Quarter

Hourly Weather History & Observations

Time (MST) Temp. Windchill Dew Point Humidity Pressure Visibility Wind Dir Wind Speed Gust Speed Precip Events Conditions
12:53 AM 33.1 °F 26.9 °F 14.0 °F 46% 29.82 in 10.0 mi West 6.9 mph - N/A   Clear
1:53 AM 32.0 °F 22.5 °F 17.1 °F 54% 29.84 in 10.0 mi WNW 12.7 mph - N/A   Clear
2:53 AM 33.1 °F 23.9 °F 10.9 °F 40% 29.86 in 10.0 mi WNW 12.7 mph 21.9 mph N/A   Clear
3:53 AM 30.9 °F 22.2 °F 7.0 °F 37% 29.89 in 10.0 mi WNW 10.4 mph 19.6 mph N/A   Clear
4:53 AM 28.0 °F 19.3 °F 5.0 °F 38% 29.93 in 10.0 mi West 9.2 mph - N/A   Clear
5:53 AM 27.0 °F 15.2 °F 3.0 °F 36% 29.99 in 10.0 mi West 15.0 mph - N/A   Clear
7:53 AM 26.1 °F 14.5 °F 7.0 °F 44% 30.08 in 10.0 mi West 13.8 mph - N/A   Clear
8:53 AM 30.9 °F 20.7 °F 10.0 °F 42% 30.10 in 10.0 mi West 13.8 mph - N/A   Clear
9:53 AM 35.1 °F 24.5 °F 8.1 °F 33% 30.10 in 10.0 mi West 18.4 mph 25.3 mph N/A   Clear
10:53 AM 37.9 °F 27.3 °F 5.0 °F 25% 30.12 in 10.0 mi West 21.9 mph 27.6 mph N/A   Clear
11:53 AM 39.0 °F 28.3 °F 1.9 °F 21% 30.12 in 10.0 mi West 24.2 mph 28.8 mph N/A   Clear
12:53 PM 42.1 °F 33.9 °F 1.0 °F 18% 30.08 in 10.0 mi West 17.3 mph 26.5 mph N/A   Clear
1:53 PM 43.0 °F 35.4 °F -0.9 °F 16% 30.06 in 10.0 mi West 16.1 mph 23.0 mph N/A   Clear
2:53 PM 44.1 °F 36.8 °F -4.0 °F 13% 30.06 in 10.0 mi WNW 16.1 mph 24.2 mph N/A   Clear
3:53 PM 43.0 °F 35.1 °F -7.1 °F 12% 30.07 in 10.0 mi West 17.3 mph 25.3 mph N/A   Clear
4:53 PM 42.1 °F 36.1 °F -11.0 °F 10% 30.08 in 10.0 mi WNW 10.4 mph 18.4 mph N/A   Clear
5:53 PM 37.0 °F 33.3 °F -7.1 °F 15% 30.11 in 10.0 mi West 4.6 mph - N/A   Clear
6:53 PM 33.1 °F 28.7 °F -7.1 °F 18% 30.14 in 10.0 mi West 4.6 mph - N/A   Clear
7:53 PM 30.9 °F 24.3 °F -5.1 °F 21% 30.14 in 10.0 mi West 6.9 mph - N/A   Clear
8:53 PM 30.9 °F 26.2 °F -2.9 °F 23% 30.14 in 10.0 mi East 4.6 mph - N/A   Clear
9:53 PM 23.0 °F 14.7 °F 1.0 °F 39% 30.17 in 10.0 mi East 6.9 mph - N/A   Clear
10:53 PM 23.0 °F 13.9 °F 6.1 °F 48% 30.15 in 10.0 mi East 8.1 mph - N/A   Clear
11:53 PM 21.0 °F 11.4 °F 8.1 °F 57% 30.15 in 10.0 mi ENE 8.1 mph - N/A   Clear